Voltar ao catálogo

STARLINK-37492

AtivoComunicaçõesSSO
NORAD 68849·PAYLOAD·🇺🇸 United States

Lançado Apr 26, 2026 de Vandenberg Space Force Base

Loading…

Próximas Passagens (próximas 24 horas)

TLE

AtualizadoSource: CelesTrak SupGP

Época: Sep 14, 2026, 23:19 UTC

1 68849C 26094L   26257.97201389  .00066652  00000+0  20682-2 0  2578
2 68849  97.2835 271.1643 0001243  94.3124 127.8609 15.33418118    17

Acompanhe STARLINK-37492 em tempo real com AllMySat

Download on the App Store